Targu Mures, Romania

6:31 PM EEST on September 22, 2017 (GMT +0300)
Vidrasau

Weather History for LRTM - February, 2013

Change the Weather History Date:

Tuesday, February 19, 2013

  Actual Average Record
Temperature  
Mean Temperature 34 °F -  
Max Temperature 41 °F 43 °F 60 °F (2014)
Min Temperature 28 °F 26 °F 12 °F (1997)
Degree Days  
Heating Degree Days 30    
Moisture  
Dew Point 26 °F    
Average Humidity 75    
Maximum Humidity 93    
Minimum Humidity 57    
Precipitation  
Precipitation 0.00 in - - ()
Sea Level Pressure  
Sea Level Pressure 29.96 in    
Wind  
Wind Speed 2 mph ()    
Max Wind Speed 7 mph    
Max Gust Speed -    
Visibility 5.4 miles    
Events      
Averages and records for this station are not official NWS values.
T = Trace of Precipitation, MM = Missing Value Source: Averaged Metar Reports

Daily Weather History Graph

Daily Weather History Graph

Search for Another Location

Airport or City:

Trip Planner

Search our weather history database for the weather conditions in past years. The results will help you decide how hot, cold, wet, or windy it might be!

Date:

Astronomy

Feb. 19, 2013 Rise Set
Actual Time 7:18 AM EET 5:53 PM EET
Civil Twilight 6:48 AM EET 6:23 PM EET
Nautical Twilight 6:13 AM EET 6:59 PM EET
Astronomical Twilight 5:38 AM EET 7:34 PM EET
Moon 11:58 AM EET (2/19) 2:45 AM EET (2/19)
Length of Visible Light 11h 35m
Length of Day
10h 34m
Waxing Gibbous, 64% of the Moon is Illuminated
Feb 19
Waxing Gibbous
Feb 25
Full
Mar 4
Last Quarter
Mar 11
New
Mar 19
First Quarter

Hourly Weather History & Observations

Time (EET) Temp. Windchill Dew Point Humidity Pressure Visibility Wind Dir Wind Speed Gust Speed Precip Events Conditions
12:00 AM 32.0 °F - 28.4 °F 87% 30.06 in 3.7 mi ENE 2.3 mph - N/A   Mostly Cloudy
1:00 AM 28.4 °F - 26.6 °F 93% 30.06 in - Calm Calm - N/A   Scattered Clouds
2:00 AM 30.2 °F - 28.4 °F 93% 30.06 in 3.7 mi Variable 2.3 mph - N/A   Overcast
3:00 AM 30.2 °F 25.4 °F 28.4 °F 93% 30.04 in 3.7 mi SW 4.6 mph - N/A   Mostly Cloudy
4:00 AM 30.2 °F - 28.4 °F 93% 30.04 in 4.3 mi Variable 2.3 mph - N/A   Mostly Cloudy
5:00 AM 30.2 °F - 26.6 °F 86% 30.04 in 5.0 mi Variable 2.3 mph - N/A   Mostly Cloudy
5:30 AM 30.2 °F - 24.8 °F 80% 30.04 in 5.6 mi Variable 2.3 mph - N/A   Mostly Cloudy
6:00 AM 30.2 °F - 24.8 °F 80% 30.04 in 5.6 mi Variable 2.3 mph - N/A   Overcast
6:30 AM 30.2 °F - 24.8 °F 80% 30.01 in 5.6 mi Variable 2.3 mph - N/A   Overcast
7:00 AM 30.2 °F - 24.8 °F 80% 30.01 in 5.6 mi Variable 2.3 mph - N/A   Overcast
7:30 AM 30.2 °F - 26.6 °F 86% 30.01 in 5.0 mi Variable 2.3 mph - N/A   Overcast
8:00 AM 30.2 °F - 26.6 °F 86% 30.01 in 5.0 mi West 2.3 mph - N/A   Overcast
8:30 AM 30.2 °F - 26.6 °F 86% 30.01 in 5.0 mi Variable 2.3 mph - N/A   Overcast
9:00 AM 32.0 °F - 26.6 °F 80% 30.01 in 6.2 mi Variable 2.3 mph - N/A   Mostly Cloudy
9:30 AM 32.0 °F - 24.8 °F 75% 30.01 in 6.2 mi Variable 2.3 mph - N/A   Overcast
10:00 AM 33.8 °F - 26.6 °F 75% 30.01 in 6.2 mi Calm Calm - N/A   Mostly Cloudy
10:30 AM 33.8 °F - 24.8 °F 70% 30.01 in 6.2 mi Variable 2.3 mph - N/A   Mostly Cloudy
11:00 AM 33.8 °F - 24.8 °F 70% 30.01 in 6.2 mi Variable 2.3 mph - N/A   Mostly Cloudy
11:30 AM 35.6 °F - 24.8 °F 65% 29.98 in 6.2 mi Variable 2.3 mph - N/A   Mostly Cloudy
12:00 PM 35.6 °F - 24.8 °F 65% 29.98 in 6.2 mi Variable 2.3 mph - N/A   Mostly Cloudy
12:30 PM 37.4 °F 33.8 °F 26.6 °F 65% 29.98 in 6.2 mi East 4.6 mph - N/A   Mostly Cloudy
1:00 PM 41.0 °F - 28.4 °F 61% 29.95 in 6.2 mi Variable 2.3 mph - N/A   Mostly Cloudy
1:30 PM 41.0 °F 38.0 °F 26.6 °F 57% 29.95 in 6.2 mi Variable 4.6 mph - N/A   Scattered Clouds
2:00 PM 41.0 °F - 26.6 °F 57% 29.95 in 6.2 mi Variable 2.3 mph - N/A   Mostly Cloudy
2:30 PM 39.2 °F - 26.6 °F 61% 29.92 in 6.2 mi Variable 2.3 mph - N/A   Scattered Clouds
3:00 PM 41.0 °F - 26.6 °F 57% 29.92 in 6.2 mi Variable 2.3 mph - N/A   Scattered Clouds
3:30 PM 39.2 °F 35.9 °F 26.6 °F 61% 29.92 in 6.2 mi NNE 4.6 mph - N/A   Scattered Clouds
4:00 PM 41.0 °F - 26.6 °F 57% 29.89 in 6.2 mi Variable 2.3 mph - N/A   Scattered Clouds
4:30 PM 39.2 °F - 26.6 °F 61% 29.89 in 6.2 mi Variable 2.3 mph - N/A   Scattered Clouds
5:00 PM 39.2 °F 34.2 °F 26.6 °F 61% 29.89 in 6.2 mi North 6.9 mph - N/A   Partly Cloudy
5:30 PM 37.4 °F 32.1 °F 26.6 °F 65% 29.89 in 6.2 mi North 6.9 mph - N/A   Partly Cloudy
6:00 PM 35.6 °F 31.7 °F 26.6 °F 70% 29.86 in 6.2 mi North 4.6 mph - N/A   Partly Cloudy
6:30 PM 33.8 °F - 24.8 °F 70% 29.89 in 6.2 mi Variable 2.3 mph - N/A   Scattered Clouds
7:00 PM 33.8 °F - 24.8 °F 70% 29.89 in 6.2 mi Calm Calm - N/A   Scattered Clouds
7:30 PM 32.0 °F - 24.8 °F 75% 29.89 in 5.6 mi Calm Calm - N/A   Partly Cloudy
8:00 PM 28.4 °F - 24.8 °F 86% 29.89 in 4.3 mi ESE 2.3 mph - N/A   Unknown
8:30 PM 30.2 °F - 24.8 °F 80% 29.89 in 3.7 mi East 2.3 mph - N/A   Unknown
9:00 PM 30.2 °F - 26.6 °F 86% 29.89 in 3.7 mi East 2.3 mph - N/A   Unknown
10:00 PM 30.2 °F - 26.6 °F 86% 29.89 in 3.7 mi Calm Calm - N/A   Unknown
11:00 PM 30.2 °F - 26.6 °F 86% 29.89 in 3.1 mi Calm Calm - N/A   Mist